N6OIM Weather Reports


Display with metric or nautical units.
time (UTC)temp
F
wind
direction
speed
MPH
gust
MPH
rain 1hr
in
rain 24hr
in
rain mn
in
humidity
%
barometer
mb
20260508173824 65 138 0.0 0.0 0.00 0.00 0.00 74 1016.2
20260508173331 65 127 0.0 0.0 0.00 0.00 0.00 75 1016.1
20260508172820 64 125 0.0 0.0 0.00 0.00 0.00 74 1016.3
20260508172327 64 125 0.0 0.0 0.00 0.00 0.00 75 1016.3
20260508171820 64 121 0.0 0.0 0.00 0.00 0.00 76 1016.2
20260508171332 64 119 0.0 0.0 0.00 0.00 0.00 77 1016.4
20260508170821 63 115 0.0 0.0 0.00 0.00 0.00 77 1016.3
20260508170330 63 105 0.0 0.0 0.00 0.00 0.00 77 1016.3
20260508165823 63 91 0.0 0.0 0.00 0.00 0.00 77 1016.3
20260508165332 63 78 0.0 0.0 0.00 0.00 0.00 79 1016.2
20260508164822 62 257 0.0 0.0 0.00 0.00 0.00 79 1016.3
20260508164331 62 200 0.0 0.0 0.00 0.00 0.00 80 1016.2
20260508163825 61 178 0.0 0.0 0.00 0.00 0.00 80 1016.2
20260508163317 61 208 0.0 0.0 0.00 0.00 0.00 81 1016.1
20260508162826 61 207 0.0 0.0 0.00 0.00 0.00 81 1016.1
20260508162334 61 215 0.0 0.0 0.00 0.00 0.00 81 1016.2
20260508161822 60 211 0.0 0.0 0.00 0.00 0.00 82 1016.2
20260508161330 60 206 0.0 0.0 0.00 0.00 0.00 82 1016.1
20260508160818 60 136 0.0 0.0 0.00 0.00 0.00 84 1016.1
20260508160328 60 121 0.0 0.0 0.00 0.00 0.00 85 1016.2
20260508155818 59 119 0.0 0.0 0.00 0.00 0.00 87 1016.2
20260508155327 58 121 0.0 0.0 0.00 0.00 0.00 87 1016.2
20260508154821 58 121 0.0 0.0 0.00 0.00 0.00 88 1016.2
20260508154329 58 121 0.0 0.0 0.00 0.00 0.00 88 1016.3
20260508153818 57 121 0.0 0.0 0.00 0.00 0.00 88 1016.2
20260508153327 57 117 0.0 0.0 0.00 0.00 0.00 88 1016.2
20260508152835 57 117 0.0 0.0 0.00 0.00 0.00 88 1016.2
20260508152323 57 185 0.0 0.0 0.00 0.00 0.00 89 1016.2
20260508151833 56 184 0.0 0.0 0.00 0.00 0.00 89 1016.2
20260508151321 56 182 0.0 0.0 0.00 0.00 0.00 89 1016.2
20260508150850 56 250 0.0 0.0 0.00 0.00 0.00 89 1016.2
20260508150317 56 136 0.0 0.0 0.00 0.00 0.00 89 1016.1
20260508145824 55 136 0.0 0.0 0.00 0.00 0.00 89 1016.2
20260508145315 55 136 0.0 0.0 0.00 0.00 0.00 89 1016.2
20260508144826 55 120 0.0 0.0 0.00 0.00 0.00 89 1016.0
20260508144334 55 115 0.0 0.0 0.00 0.00 0.00 89 1016.0
20260508143823 55 111 0.0 0.0 0.00 0.00 0.00 89 1016.0
20260508143330 55 119 0.0 0.0 0.00 0.00 0.00 89 1015.9
20260508142820 54 134 0.0 0.0 0.00 0.00 0.00 89 1016.0
20260508142329 54 119 0.0 0.0 0.00 0.00 0.00 89 1015.9
20260508141821 54 142 0.0 0.0 0.00 0.00 0.00 89 1015.8
20260508141329 54 143 0.0 0.0 0.00 0.00 0.00 89 1015.7
20260508140822 54 144 0.0 0.0 0.00 0.00 0.00 88 1015.7
20260508140334 54 138 0.0 0.0 0.00 0.00 0.00 88 1015.6
20260508135844 54 132 0.0 0.0 0.00 0.00 0.00 88 1015.6
20260508135330 54 136 0.0 0.0 0.00 0.00 0.00 88 1015.5
20260508134822 54 126 0.0 0.0 0.00 0.00 0.00 88 1015.4
20260508134330 54 126 0.0 0.0 0.00 0.00 0.00 88 1015.3
20260508133820 54 146 0.0 0.0 0.00 0.00 0.00 88 1015.3
20260508133329 54 149 0.0 0.0 0.00 0.00 0.00 88 1015.3
20260508132818 54 149 0.0 0.0 0.00 0.00 0.00 88 1015.3
20260508132331 54 149 0.0 0.0 0.00 0.00 0.00 88 1015.3
20260508131822 54 149 0.0 0.0 0.00 0.00 0.00 88 1015.4
20260508131331 54 149 0.0 0.0 0.00 0.00 0.00 88 1015.3
20260508130840 54 149 0.0 0.0 0.00 0.00 0.00 88 1015.4
20260508130327 54 149 0.0 0.0 0.00 0.00 0.00 88 1015.4
20260508125819 54 148 0.0 0.0 0.00 0.00 0.00 88 1015.4
20260508125328 54 148 0.0 0.0 0.00 0.00 0.00 88 1015.3
20260508124837 54 148 0.0 0.0 0.00 0.00 0.00 88 1015.1
20260508124325 55 148 0.0 0.0 0.00 0.00 0.00 87 1015.1
20260508123822 55 148 0.0 0.0 0.00 0.00 0.00 87 1015.1
20260508123331 55 148 0.0 0.0 0.00 0.00 0.00 88 1015.1
20260508122823 55 148 0.0 0.0 0.00 0.00 0.00 88 1015.2
20260508122335 55 148 0.0 0.0 0.00 0.00 0.00 87 1015.1
20260508121826 55 148 0.0 0.0 0.00 0.00 0.00 87 1014.9
20260508121333 55 148 0.0 0.0 0.00 0.00 0.00 87 1014.8
20260508120822 55 148 0.0 0.0 0.00 0.00 0.00 87 1014.8
20260508120333 55 149 0.0 0.0 0.00 0.00 0.00 87 1014.9
20260508115841 55 150 0.0 0.0 0.00 0.00 0.00 87 1014.8
20260508115329 55 150 0.0 0.0 0.00 0.00 0.00 87 1014.9
20260508114822 55 150 0.0 0.0 0.00 0.00 0.00 87 1014.9
20260508114330 55 150 0.0 0.0 0.00 0.00 0.00 87 1014.8
20260508113820 55 149 0.0 0.0 0.00 0.00 0.00 86 1014.8
20260508113328 55 149 0.0 0.0 0.00 0.00 0.00 86 1014.7
20260508112818 55 149 0.0 0.0 0.00 0.00 0.00 86 1014.7
20260508112327 56 149 0.0 0.0 0.00 0.00 0.00 86 1014.7
20260508111817 56 149 0.0 0.0 0.00 0.00 0.00 86 1014.7
20260508111325 56 149 0.0 0.0 0.00 0.00 0.00 86 1014.7
20260508110834 56 149 0.0 0.0 0.00 0.00 0.00 86 1014.8
20260508110326 56 149 0.0 0.0 0.00 0.00 0.00 86 1014.7
20260508105835 56 149 0.0 0.0 0.00 0.00 0.00 86 1014.8
20260508105343 56 149 0.0 0.0 0.00 0.00 0.00 86 1014.7
20260508104832 56 148 0.0 0.0 0.00 0.00 0.00 86 1014.8
20260508104319 56 148 0.0 0.0 0.00 0.00 0.00 86 1014.7
20260508103827 56 148 0.0 0.0 0.00 0.00 0.00 86 1014.8
20260508103355 56 148 0.0 0.0 0.00 0.00 0.00 86 1014.7
20260508102822 57 149 0.0 0.0 0.00 0.00 0.00 85 1014.8
20260508102335 57 150 0.0 0.0 0.00 0.00 0.00 85 1014.7
20260508101825 57 150 0.0 0.0 0.00 0.00 0.00 85 1014.8
20260508101332 57 150 0.0 0.0 0.00 0.00 0.00 85 1014.7
20260508100825 57 150 0.0 0.0 0.00 0.00 0.00 85 1014.7
20260508100314 57 150 0.0 0.0 0.00 0.00 0.00 85 1014.8
20260508095826 57 150 0.0 0.0 0.00 0.00 0.00 84 1014.8
20260508095334 57 150 0.0 0.0 0.00 0.00 0.00 85 1014.9
20260508094823 57 150 0.0 0.0 0.00 0.00 0.00 84 1014.9
20260508094351 57 150 0.0 0.0 0.00 0.00 0.00 84 1014.8
20260508093819 57 150 0.0 0.0 0.00 0.00 0.00 84 1014.8
20260508093348 57 150 0.0 0.0 0.00 0.00 0.00 84 1014.8
20260508092856 58 150 0.0 0.0 0.00 0.00 0.00 84 1014.8
20260508092323 58 149 0.0 0.0 0.00 0.00 0.00 83 1014.8
20260508091832 58 150 0.0 0.0 0.00 0.00 0.00 83 1014.8
20260508091323 58 150 0.0 0.0 0.00 0.00 0.00 83 1014.7
20260508090835 58 150 0.0 0.0 0.00 0.00 0.00 83 1014.7
20260508090324 58 149 0.0 0.0 0.00 0.00 0.00 83 1014.5
20260508085834 58 149 0.0 0.0 0.00 0.00 0.00 82 1014.4
20260508085322 58 150 0.0 0.0 0.00 0.00 0.00 82 1014.6
20260508084831 59 150 0.0 0.0 0.00 0.00 0.00 82 1014.5
20260508084323 59 149 0.0 0.0 0.00 0.00 0.00 82 1014.6
20260508083832 59 150 0.0 0.0 0.00 0.00 0.00 81 1014.6
20260508083328 59 151 0.0 0.0 0.00 0.00 0.00 81 1014.6
20260508082817 60 151 0.0 0.0 0.00 0.00 0.00 80 1014.6
20260508082325 60 150 0.0 0.0 0.00 0.00 0.00 80 1014.6
20260508081815 60 151 0.0 0.0 0.00 0.00 0.00 80 1014.6
20260508081327 60 149 0.0 0.0 0.00 0.00 0.00 80 1014.5
20260508080817 60 150 0.0 0.0 0.00 0.00 0.00 79 1014.5
20260508080326 60 150 0.0 0.0 0.00 0.00 0.00 79 1014.4
20260508075818 61 149 0.0 0.0 0.00 0.00 0.00 79 1014.5
20260508075326 61 149 0.0 0.0 0.00 0.00 0.00 79 1014.5
20260508074819 61 148 0.0 0.0 0.00 0.00 0.00 79 1014.4
20260508074350 61 151 0.0 0.0 0.00 0.00 0.00 78 1014.4
20260508073818 61 150 0.0 0.0 0.00 0.00 0.00 78 1014.4
20260508073326 62 150 0.0 0.0 0.00 0.00 0.00 78 1014.2
20260508072836 62 150 0.0 0.0 0.00 0.00 0.00 78 1014.3
20260508072324 62 152 0.0 0.0 0.00 0.00 0.00 78 1014.3
20260508071832 62 151 0.0 0.0 0.00 0.00 0.00 78 1014.2
20260508071320 63 151 0.0 0.0 0.00 0.00 0.00 78 1014.2
20260508070830 63 151 0.0 0.0 0.00 0.00 0.00 78 1014.3
20260508070323 63 149 0.0 0.0 0.00 0.00 0.00 77 1014.2
20260508065832 63 149 0.0 0.0 0.00 0.00 0.00 77 1014.2
20260508065319 64 149 0.0 0.0 0.00 0.00 0.00 76 1014.3
20260508064828 64 149 0.0 0.0 0.00 0.00 0.00 75 1014.1
20260508064316 64 149 0.0 0.0 0.00 0.00 0.00 75 1014.0
20260508063847 64 149 0.0 0.0 0.00 0.00 0.00 75 1014.0
20260508063336 64 149 0.0 0.0 0.00 0.00 0.00 75 1014.0
20260508062824 64 149 0.0 0.0 0.00 0.00 0.00 74 1014.0
20260508062332 65 149 0.0 0.0 0.00 0.00 0.00 74 1014.0
20260508061822 65 149 0.0 0.0 0.00 0.00 0.00 74 1014.1
20260508061315 65 149 0.0 0.0 0.00 0.00 0.00 73 1014.0
20260508060828 65 149 0.0 0.0 0.00 0.00 0.00 73 1014.0
20260508060357 66 149 0.0 0.0 0.00 0.00 0.00 73 1014.1
20260508055825 66 147 0.0 0.0 0.00 0.00 0.00 72 1014.1
20260508055316 66 148 0.0 0.0 0.00 0.00 0.00 72 1014.0
20260508054824 67 147 0.0 0.0 0.00 0.00 0.00 71 1014.0
20260508054333 67 145 0.0 0.0 0.00 0.00 0.00 70 1014.1
20260508053822 67 146 0.0 0.0 0.00 0.00 0.00 70 1014.0
20260508053330 68 144 0.0 0.0 0.00 0.00 0.00 69 1014.1
20260508052823 68 144 0.0 0.0 0.00 0.00 0.00 69 1014.0
20260508052331 69 144 0.0 0.0 0.00 0.00 0.00 69 1014.1
20260508051820 69 144 0.0 0.0 0.00 0.00 0.00 69 1014.1
20260508051329 69 144 0.0 0.0 0.00 0.00 0.00 69 1014.0
20260508050839 70 144 0.0 0.0 0.00 0.00 0.00 68 1014.0
20260508050345 70 144 0.0 0.0 0.00 0.00 0.00 68 1014.0
20260508045817 71 143 0.0 0.0 0.00 0.00 0.00 67 1014.0
20260508045328 71 202 0.0 0.0 0.00 0.00 0.00 66 1014.0
20260508044818 71 202 0.0 0.0 0.00 0.00 0.00 65 1013.9
20260508044329 72 202 0.0 0.0 0.00 0.00 0.00 64 1013.8
20260508043822 72 202 0.0 0.0 0.00 0.00 0.00 63 1013.7
20260508043330 72 202 0.0 0.0 0.00 0.00 0.00 63 1013.7
20260508042818 73 202 0.0 0.0 0.00 0.00 0.00 63 1013.6
20260508042327 73 202 0.0 0.0 0.00 0.00 0.00 63 1013.6
20260508041818 73 202 0.0 0.0 0.00 0.00 0.00 63 1013.5
20260508041325 74 202 0.0 0.0 0.00 0.00 0.00 63 1013.5
20260508040834 74 202 0.0 0.0 0.00 0.00 0.00 62 1013.4
20260508040322 74 202 0.0 0.0 0.00 0.00 0.00 61 1013.4
20260508035832 75 202 0.0 0.0 0.00 0.00 0.00 61 1013.3
20260508035325 75 197 0.0 0.0 0.00 0.00 0.00 60 1013.3
20260508034834 76 215 0.0 0.0 0.00 0.00 0.00 60 1013.3
20260508034322 76 215 0.0 0.0 0.00 0.00 0.00 59 1013.0
20260508033831 77 215 0.0 0.0 0.00 0.00 0.00 59 1012.9
20260508033323 77 209 0.0 0.0 0.00 0.00 0.00 59 1013.0
20260508032836 78 209 0.0 0.0 0.00 0.00 0.00 58 1012.9
20260508032323 78 198 0.0 0.0 0.00 0.00 0.00 58 1012.9
20260508031831 79 187 0.0 0.0 0.00 0.00 0.00 57 1012.8
20260508031322 80 186 0.0 0.0 0.00 0.00 0.00 57 1012.8
20260508030817 80 171 0.0 0.0 0.00 0.00 0.00 56 1012.8
20260508030325 81 171 0.0 0.0 0.00 0.00 0.00 56 1012.7
20260508025834 81 171 0.0 0.0 0.00 0.00 0.00 55 1012.6
20260508025321 81 171 0.0 0.0 0.00 0.00 0.00 54 1012.5
20260508024830 82 187 0.0 0.0 0.00 0.00 0.00 53 1012.5
20260508024318 82 187 0.0 0.0 0.00 0.00 0.00 53 1012.4
20260508023827 82 187 0.0 0.0 0.00 0.00 0.00 52 1012.4
20260508023335 83 187 0.0 0.0 0.00 0.00 0.00 51 1012.5
20260508022823 83 187 0.0 0.0 0.00 0.00 0.00 50 1012.5
20260508022316 83 187 0.0 0.0 0.00 0.00 0.00 50 1012.5
20260508021828 83 187 0.0 0.0 0.00 0.00 0.00 49 1012.6
20260508021316 84 188 0.0 0.0 0.00 0.00 0.00 48 1012.6
20260508020828 84 196 0.0 0.0 0.00 0.00 0.00 48 1012.5
20260508020335 85 193 0.0 0.0 0.00 0.00 0.00 47 1012.4
20260508015823 85 225 0.0 0.0 0.00 0.00 0.00 46 1012.5
20260508015331 85 225 0.0 0.0 0.00 0.00 0.00 45 1012.6
20260508014821 86 239 0.0 0.0 0.00 0.00 0.00 45 1012.5
20260508014329 86 238 0.0 0.0 0.00 0.00 0.00 43 1012.5
20260508013823 87 238 0.0 0.0 0.00 0.00 0.00 43 1012.6
20260508013332 87 221 0.0 0.0 0.00 0.00 0.00 43 1012.6
20260508012820 88 221 0.0 0.0 0.00 0.00 0.00 42 1012.6
20260508012329 88 252 0.0 0.0 0.00 0.00 0.00 42 1012.7
20260508011818 88 260 0.0 0.0 0.00 0.00 0.00 42 1012.7
20260508011326 88 246 0.0 0.0 0.00 0.00 0.00 41 1012.7
20260508010834 89 244 0.0 0.0 0.00 0.00 0.00 42 1012.7
20260508010322 89 244 0.0 0.0 0.00 0.00 0.00 43 1012.7
20260508005832 89 242 0.0 0.0 0.00 0.00 0.00 41 1012.7
20260508005324 89 244 0.0 0.0 0.00 0.00 0.00 41 1012.8
20260508004834 89 248 0.0 0.0 0.00 0.00 0.00 42 1012.7
20260508004323 89 268 0.0 0.0 0.00 0.00 0.00 42 1012.8
20260508003833 88 268 0.0 0.0 0.00 0.00 0.00 43 1012.8
20260508003321 88 268 0.0 0.0 0.00 0.00 0.00 42 1012.9
20260508002830 88 268 0.0 0.0 0.00 0.00 0.00 42 1013.0
20260508002323 88 264 0.0 0.0 0.00 0.00 0.00 43 1013.0
20260508001831 88 311 0.0 0.0 0.00 0.00 0.00 43 1013.0
20260508001326 88 264 0.0 0.0 0.00 0.00 0.00 42 1013.0
20260508000836 88 264 0.0 0.0 0.00 0.00 0.00 42 1013.0
20260508000324 88 245 0.0 0.0 0.00 0.00 0.00 45 1013.0
20260507235834 88 244 0.0 0.0 0.00 0.00 0.00 45 1012.9
20260507235326 87 286 0.0 0.0 0.00 0.00 0.00 44 1012.9
20260507234836 87 245 0.0 0.0 0.00 0.00 0.00 43 1012.9
20260507234324 87 245 0.0 0.0 0.00 0.00 0.00 43 1012.9
20260507233838 87 240 0.0 0.0 0.00 0.00 0.00 43 1012.9
20260507233326 87 203 0.0 0.0 0.00 0.00 0.00 44 1012.9
20260507232820 87 200 0.0 0.0 0.00 0.00 0.00 43 1013.0
20260507232331 87 200 0.0 0.0 0.00 0.00 0.00 42 1013.0
20260507231822 86 207 0.0 0.0 0.00 0.00 0.00 44 1013.2
20260507231331 86 207 0.0 0.0 0.00 0.00 0.00 43 1013.3
20260507230821 86 252 0.0 0.0 0.00 0.00 0.00 45 1013.3
20260507230330 86 252 0.0 0.0 0.00 0.00 0.00 45 1013.3
20260507225819 86 252 0.0 0.0 0.00 0.00 0.00 47 1013.4
20260507225330 86 281 0.0 0.0 0.00 0.00 0.00 45 1013.5
20260507224822 85 245 0.0 0.0 0.00 0.00 0.00 49 1013.5
20260507224332 85 245 0.0 0.0 0.00 0.00 0.00 47 1013.6
20260507223820 85 245 0.0 0.0 0.00 0.00 0.00 47 1013.8
20260507223329 85 245 0.0 0.0 0.00 0.00 0.00 46 1013.9
20260507222817 85 242 0.0 0.0 0.00 0.00 0.00 48 1014.0
20260507222324 84 200 0.0 0.0 0.00 0.00 0.00 49 1014.0
20260507221833 84 200 0.0 0.0 0.00 0.00 0.00 48 1014.0
20260507221321 84 244 0.0 0.0 0.00 0.00 0.00 47 1014.1
20260507220829 83 334 0.0 0.0 0.00 0.00 0.00 49 1014.2
20260507220321 83 333 0.0 0.0 0.00 0.00 0.00 50 1014.4
20260507215831 83 321 0.0 0.0 0.00 0.00 0.00 50 1014.5
20260507215318 82 321 0.0 0.0 0.00 0.00 0.00 48 1014.4
20260507214828 82 238 0.0 0.0 0.00 0.00 0.00 47 1014.5
20260507214335 82 217 0.0 0.0 0.00 0.00 0.00 49 1014.6
20260507213824 82 218 0.0 0.0 0.00 0.00 0.00 48 1014.7
20260507213331 82 188 0.0 0.0 0.00 0.00 0.00 50 1014.7
20260507212821 81 69 0.0 0.0 0.00 0.00 0.00 51 1014.8
20260507212328 81 68 0.0 0.0 0.00 0.00 0.00 49 1014.9
20260507211822 81 13 0.0 0.0 0.00 0.00 0.00 50 1015.1
20260507211331 81 5 0.0 0.0 0.00 0.00 0.00 50 1015.1
20260507210820 80 360 0.0 0.0 0.00 0.00 0.00 51 1015.1
20260507210332 80 355 0.0 0.0 0.00 0.00 0.00 51 1015.1
20260507205820 79 355 0.0 0.0 0.00 0.00 0.00 53 1015.1
20260507205331 79 351 0.0 0.0 0.00 0.00 0.00 52 1015.2
20260507204819 79 5 0.0 0.0 0.00 0.00 0.00 55 1015.3
20260507204328 79 5 0.0 0.0 0.00 0.00 0.00 52 1015.4
20260507203817 78 5 0.0 0.0 0.00 0.00 0.00 54 1015.5
20260507203330 78 5 0.0 0.0 0.00 0.00 0.00 54 1015.5
20260507202819 78 9 0.0 0.0 0.00 0.00 0.00 54 1015.8
20260507202331 78 11 0.0 0.0 0.00 0.00 0.00 55 1015.8
20260507201819 78 12 0.0 0.0 0.00 0.00 0.00 57 1015.8
20260507201327 77 9 0.0 0.0 0.00 0.00 0.00 55 1015.7
20260507200817 77 5 0.0 0.0 0.00 0.00 0.00 56 1015.8
20260507200325 77 350 0.0 0.0 0.00 0.00 0.00 56 1015.7
20260507195818 77 252 0.0 0.0 0.00 0.00 0.00 57 1015.8
20260507195327 77 254 0.0 0.0 0.00 0.00 0.00 55 1015.9
20260507194820 76 199 0.0 0.0 0.00 0.00 0.00 56 1015.9
20260507194328 76 229 0.0 0.0 0.00 0.00 0.00 58 1016.0
20260507193818 76 333 0.0 0.0 0.00 0.00 0.00 60 1016.0
20260507193326 75 333 0.0 0.0 0.00 0.00 0.00 59 1016.1
20260507192836 75 328 0.0 0.0 0.00 0.00 0.00 58 1016.3
20260507192324 75 329 0.0 0.0 0.00 0.00 0.00 58 1016.3
20260507191834 75 306 0.0 0.0 0.00 0.00 0.00 59 1016.4
20260507191322 75 251 0.0 0.0 0.00 0.00 0.00 60 1016.4
20260507190831 75 249 0.0 0.0 0.00 0.00 0.00 60 1016.4
20260507190322 75 223 0.0 0.0 0.00 0.00 0.00 61 1016.4
20260507185830 74 251 0.0 0.0 0.00 0.00 0.00 61 1016.4
20260507185318 74 254 0.0 0.0 0.00 0.00 0.00 62 1016.5
20260507184829 74 255 0.0 0.0 0.00 0.00 0.00 62 1016.5
20260507184336 73 252 0.0 0.0 0.00 0.00 0.00 61 1016.6
20260507183824 73 256 0.0 0.0 0.00 0.00 0.00 61 1016.6
20260507183333 73 256 0.0 0.0 0.00 0.00 0.00 62 1016.7
20260507182823 73 256 0.0 0.0 0.00 0.00 0.00 62 1016.8
20260507182331 73 252 0.0 0.0 0.00 0.00 0.00 62 1016.8
20260507181824 72 250 0.0 0.0 0.00 0.00 0.00 63 1016.8
20260507181332 72 252 0.0 0.0 0.00 0.00 0.00 63 1016.8
20260507180825 72 245 0.0 0.0 0.00 0.00 0.00 64 1016.8
20260507180334 72 242 0.0 0.0 0.00 0.00 0.00 64 1016.7
20260507175822 72 243 0.0 0.0 0.00 0.00 0.00 64 1016.7
20260507175331 71 241 0.0 0.0 0.00 0.00 0.00 64 1016.6
20260507174820 71 241 0.0 0.0 0.00 0.00 0.00 65 1016.7
20260507174327 71 241 0.0 0.0 0.00 0.00 0.00 67 1016.8